Youngstown, OH

10:49 AM EST on December 13, 2019 (GMT -0500)
Youngstown-Warren Regional

Weather History for KYNG - September, 2019

Change the Weather History Date:

Sunday, September 8, 2019

  Actual Average Record
Temperature  
Mean Temperature 66 °F 65 °F  
Max Temperature 73 °F 76 °F 97 °F (1939)
Min Temperature 57 °F 54 °F 37 °F (1986)
Degree Days  
Heating Degree Days 0 3  
Month to date heating degree days 8 17  
Since 1 July heating degree days 14 55  
Cooling Degree Days 0 2  
Month to date cooling degree days 15 23  
Year to date cooling degree days 679 509  
Growing Degree Days 16 (Base 50)    
Moisture  
Dew Point 55 °F    
Average Humidity 73    
Maximum Humidity 87    
Minimum Humidity 49    
Precipitation  
Precipitation 0.00 in 0.12 in 4.09 in (2004)
Month to date precipitation 0.67 0.99  
Year to date precipitation 35.19 27.21  
Snow  
Snow 0.00 in 0.00 in - ()
Month to date snowfall 0.0 0.0  
Since 1 July snowfall 0.0 0.0  
Since 1 September snowfall 0.0 0.0  
Snow Depth 0.00 in    
Sea Level Pressure  
Sea Level Pressure 30.09 in    
Wind  
Wind Speed 4 mph ()    
Max Wind Speed 12 mph    
Max Gust Speed 14 mph    
Visibility 10.0 miles    
Events      
T = Trace of Precipitation, MM = Missing Value Source: Averaged Metar Reports

Daily Weather History Graph

Daily Weather History Graph

Search for Another Location

Airport or City:

Astronomy

Sep. 08, 2019 Rise Set
Actual Time 6:55 AM EDT 7:44 PM EDT
Civil Twilight 6:27 AM EDT 8:12 PM EDT
Nautical Twilight 5:54 AM EDT 8:45 PM EDT
Astronomical Twilight 5:20 AM EDT 9:19 PM EDT
Moon 4:54 PM EDT (9/8) 1:31 AM EDT (9/8)
Length of Visible Light 13h 44m
Length of Day
12h 48m
Waxing Gibbous, 75% of the Moon is Illuminated
Sep 8
Waxing Gibbous
Sep 14
Full
Sep 21
Last Quarter
Sep 28
New
Oct 5
First Quarter

Hourly Weather History & Observations

Time (EDT) Temp. Dew Point Humidity Pressure Visibility Wind Dir Wind Speed Gust Speed Precip Events Conditions
12:51 AM 59.0 °F 55.0 °F 87% 30.01 in 10.0 mi Calm Calm - N/A   Mostly Cloudy
1:51 AM 59.0 °F 55.0 °F 87% 30.00 in 10.0 mi South 8.1 mph - N/A   Mostly Cloudy
2:51 AM 59.0 °F 55.0 °F 87% 30.00 in 10.0 mi SSW 3.5 mph - N/A   Overcast
3:51 AM 59.0 °F 55.0 °F 87% 30.00 in 10.0 mi SSW 4.6 mph - N/A   Overcast
4:51 AM 59.0 °F 55.0 °F 87% 30.00 in 10.0 mi SW 4.6 mph - N/A   Overcast
5:51 AM 59.0 °F 55.0 °F 87% 30.01 in 10.0 mi Calm Calm - N/A   Overcast
6:51 AM 59.0 °F 55.0 °F 87% 30.05 in 10.0 mi West 3.5 mph - N/A   Overcast
7:51 AM 60.1 °F 55.9 °F 86% 30.06 in 10.0 mi WSW 3.5 mph - N/A   Overcast
8:51 AM 63.0 °F 57.9 °F 84% 30.09 in 10.0 mi NW 4.6 mph - N/A   Overcast
9:51 AM 66.9 °F 59.0 °F 76% 30.09 in 10.0 mi North 5.8 mph - N/A   Mostly Cloudy
10:41 AM 68.0 °F 57.0 °F 68% 30.10 in 10.0 mi Variable 5.8 mph - N/A   Mostly Cloudy
10:51 AM 68.0 °F 57.0 °F 68% 30.10 in 10.0 mi North 8.1 mph - N/A   Mostly Cloudy
11:51 AM 68.0 °F 57.0 °F 68% 30.12 in 10.0 mi North 4.6 mph - N/A   Mostly Cloudy
12:51 PM 72.0 °F 55.0 °F 55% 30.11 in 10.0 mi NNW 6.9 mph - N/A   Mostly Cloudy
1:14 PM 71.1 °F 55.0 °F 57% 30.11 in 10.0 mi North 8.1 mph - N/A   Mostly Cloudy
1:51 PM 73.0 °F 53.1 °F 49% 30.11 in 10.0 mi North 5.8 mph - N/A   Mostly Cloudy
2:51 PM 71.1 °F 54.0 °F 55% 30.11 in 10.0 mi North 9.2 mph - N/A   Mostly Cloudy
3:51 PM 70.0 °F 52.0 °F 53% 30.11 in 10.0 mi North 6.9 mph - N/A   Overcast
4:51 PM 69.1 °F 53.1 °F 57% 30.11 in 10.0 mi NNE 6.9 mph - N/A   Overcast
5:51 PM 66.9 °F 53.1 °F 61% 30.13 in 10.0 mi North 9.2 mph - N/A   Overcast
6:51 PM 64.9 °F 53.1 °F 65% 30.14 in 10.0 mi North 8.1 mph - N/A   Overcast
7:51 PM 63.0 °F 53.1 °F 70% 30.16 in 10.0 mi North 5.8 mph - N/A   Overcast
8:51 PM 62.1 °F 53.1 °F 72% 30.16 in 10.0 mi North 5.8 mph - N/A   Mostly Cloudy
9:51 PM 60.1 °F 53.1 °F 78% 30.17 in 10.0 mi NE 5.8 mph - N/A   Overcast
10:51 PM 59.0 °F 53.1 °F 81% 30.18 in 10.0 mi NE 6.9 mph - N/A   Mostly Cloudy
11:51 PM 57.9 °F 52.0 °F 81% 30.19 in 10.0 mi ENE 4.6 mph - N/A   Mostly Cloudy